Location: Melbourne
(37.8170°S, 144.9670°E)
Time: 20:05:23
(UTC+10:00)

deb Explorer IX - All Passes

Search period start: 29 April 2016 00:00
Search period end: 09 May 2016 00:00
Orbit: 549 x 1135 km, 38.8° (Epoch: 28 April)

Date Brightness Start Highest point End Pass type
(mag) Time Alt. Az. Time Alt. Az. Time Alt. Az.
29 Apr - 08:48:56 10° NNE 08:49:53 11° NE 08:50:50 10° NE daylight
29 Apr - 10:31:58 10° NW 10:36:14 47° NNE 10:41:10 10° E daylight
29 Apr - 12:18:36 10° W 12:23:28 84° S 12:29:16 10° E daylight
29 Apr - 14:05:42 10° W 14:11:06 89° N 14:17:33 10° ENE daylight
29 Apr - 15:52:58 10° W 15:58:37 45° NNW 16:05:08 10° NE daylight
29 Apr - 17:42:07 10° WNW 17:45:45 15° NW 17:49:35 10° N daylight
30 Apr - 08:31:38 10° NNE 08:33:07 12° NE 08:34:40 10° ENE daylight
30 Apr - 10:15:19 10° NW 10:19:33 50° NNE 10:24:22 10° E daylight
30 Apr - 12:02:01 10° W 12:06:46 82° S 12:12:24 10° E daylight
30 Apr - 13:49:06 10° W 13:54:22 87° NNW 14:00:39 10° ENE daylight
30 Apr - 15:36:21 10° W 15:41:49 42° NNW 15:48:06 10° NE daylight
30 Apr - 17:25:54 10° WNW 17:28:53 13° NW 17:32:00 10° NNW daylight
01 May - 08:14:29 10° N 08:16:23 13° NE 08:18:19 10° ENE daylight
01 May - 09:58:40 10° NW 10:02:51 53° NNE 10:07:35 10° E daylight
01 May - 11:45:26 10° W 11:50:05 81° S 11:55:34 10° E daylight
01 May - 13:32:30 10° W 13:37:37 84° NNW 13:43:44 10° ENE daylight
01 May - 15:19:46 10° W 15:25:00 38° NNW 15:31:02 10° NE daylight
01 May - 17:09:57 10° WNW 17:12:01 12° NW 17:14:11 10° NNW daylight
02 May - 07:57:26 10° N 07:59:39 14° NE 08:01:54 10° ENE daylight
02 May - 09:42:01 10° WNW 09:46:11 56° NNE 09:50:50 10° E daylight
02 May - 11:28:51 10° W 11:33:24 80° S 11:38:43 10° E daylight
02 May - 13:15:54 10° W 13:20:54 81° NNW 13:26:50 10° ENE daylight
02 May - 15:03:12 10° W 15:08:12 35° NNW 15:13:58 10° NE daylight
03 May - 07:40:27 10° N 07:42:55 15° NE 07:45:26 10° ENE daylight
03 May - 09:25:22 10° WNW 09:29:30 59° NNE 09:34:04 10° E daylight
03 May - 11:12:16 10° W 11:16:43 79° S 11:21:54 10° E daylight
03 May - 12:59:18 10° W 13:04:10 77° NNW 13:09:57 10° ENE daylight
03 May - 14:46:40 10° W 14:51:25 32° NNW 14:56:53 10° NNE daylight
04 May - 07:23:29 10° N 07:26:12 17° NE 07:28:56 10° ENE daylight
04 May - 09:08:43 10° WNW 09:12:50 63° NNE 09:17:19 10° E daylight
04 May - 10:55:41 10° W 11:00:03 78° S 11:05:05 10° E daylight
04 May - 12:42:42 10° W 12:47:27 74° NNW 12:53:02 10° ENE daylight
04 May - 14:30:08 10° W 14:34:38 29° NNW 14:39:47 10° NNE daylight
05 May - 07:06:32 10° NNW 07:09:28 19° NNE 07:12:25 10° ENE daylight
05 May - 08:52:03 10° WNW 08:56:10 67° NNE 09:00:34 10° E daylight
05 May - 10:39:05 10° W 10:43:23 78° S 10:48:17 10° E daylight
05 May - 12:26:07 10° W 12:30:44 69° NNW 12:36:09 10° ENE daylight
05 May - 14:13:37 10° W 14:17:51 26° NNW 14:22:39 10° NNE daylight
06 May - 06:49:36 10° NNW 06:52:45 21° NNE 06:55:53 10° E daylight
06 May - 08:35:23 10° WNW 08:39:30 71° NNE 08:43:51 10° E daylight
06 May - 10:22:28 10° W 10:26:44 78° S 10:31:30 10° E daylight
06 May - 12:09:30 10° W 12:14:02 65° NNW 12:19:16 10° ENE daylight
06 May - 13:57:09 10° W 14:01:05 23° NNW 14:05:29 10° NNE daylight
07 May - 06:32:41 10° NNW 06:36:03 23° NNE 06:39:21 10° E visible
07 May - 08:18:42 10° WNW 08:22:51 75° NNE 08:27:08 10° E daylight
07 May - 10:05:52 10° W 10:10:05 78° S 10:14:44 10° E daylight
07 May - 11:52:55 10° W 11:57:19 61° NNW 12:02:23 10° ENE daylight
07 May - 13:40:43 10° W 13:44:19 20° NNW 13:48:19 10° NNE daylight
08 May - 06:15:46 10° NNW 06:19:20 25° NNE 06:22:47 10° E visible
08 May - 08:02:02 10° WNW 08:06:11 79° NNE 08:10:26 10° E daylight
08 May - 09:49:14 10° W 09:53:26 79° S 09:57:58 10° E daylight
08 May - 11:36:19 10° W 11:40:38 56° NNW 11:45:30 10° ENE daylight
08 May - 13:24:20 10° WNW 13:27:33 18° NNW 13:31:05 10° N daylight
